Time,TemperatureF,DewpointF,PressureIn,WindDirection,WindDirectionDegrees,WindSpeedMPH,WindSpeedGustMPH,Humidity,HourlyPrecipIn,Conditions,Clouds,dailyrainin,SolarRadiationWatts/m^2,SoftwareType,DateUTC
2013-09-12 00:01:00,70.6,67.8,30.00,SSW,193,0.0,0.0,91,0.00,,,0.00,0.00,VWS V14.01,2013-09-12 04:01:00,
2013-09-12 00:03:00,70.4,67.7,30.00,SSW,193,0.0,0.0,91,0.00,,,0.00,0.00,VWS V14.01,2013-09-12 04:03:00,
2013-09-12 00:08:00,70.4,67.7,30.00,SSW,193,0.0,0.0,91,0.00,,,0.00,0.00,VWS V14.01,2013-09-12 04:08:00,
2013-09-12 00:13:00,70.4,67.7,30.00,SSW,193,0.0,0.0,91,0.00,,,0.00,0.00,VWS V14.01,2013-09-12 04:13:00,
2013-09-12 00:18:00,70.3,67.6,29.99,SSW,193,0.0,0.0,91,0.00,,,0.00,0.00,VWS V14.01,2013-09-12 04:18:00,
2013-09-12 00:23:00,70.3,67.6,29.99,SSW,193,0.0,0.0,91,0.00,,,0.00,0.00,VWS V14.01,2013-09-12 04:23:00,
2013-09-12 00:28:00,70.3,67.6,29.99,SSW,193,0.0,0.0,91,0.00,,,0.00,0.00,VWS V14.01,2013-09-12 04:28:00,
2013-09-12 00:33:00,70.3,67.6,29.99,SSW,193,0.0,0.0,91,0.00,,,0.00,0.00,VWS V14.01,2013-09-12 04:33:00,
2013-09-12 00:38:00,70.3,67.6,29.99,SSW,193,0.0,0.0,91,0.00,,,0.00,0.00,VWS V14.01,2013-09-12 04:38:00,
2013-09-12 00:43:00,70.3,67.6,29.99,SSW,193,0.0,0.0,91,0.00,,,0.00,0.00,VWS V14.01,2013-09-12 04:43:00,
2013-09-12 00:48:00,70.3,67.6,29.99,SSW,193,0.0,0.0,91,0.00,,,0.00,0.00,VWS V14.01,2013-09-12 04:48:00,
2013-09-12 00:53:00,70.3,67.6,29.99,SSW,193,0.0,0.0,91,0.00,,,0.00,0.00,VWS V14.01,2013-09-12 04:53:00,
2013-09-12 00:58:00,70.3,67.6,29.99,SSW,193,0.0,0.0,91,0.00,,,0.00,0.00,VWS V14.01,2013-09-12 04:58:00,
2013-09-12 01:03:00,70.3,67.6,29.98,SSW,193,0.0,0.0,91,0.00,,,0.00,0.00,VWS V14.01,2013-09-12 05:03:00,
2013-09-12 01:08:00,70.3,67.6,29.98,SSW,193,0.0,0.0,91,0.00,,,0.00,0.00,VWS V14.01,2013-09-12 05:08:00,
2013-09-12 01:13:00,70.3,67.9,29.98,SSW,193,0.0,0.0,92,0.00,,,0.00,0.00,VWS V14.01,2013-09-12 05:13:00,
2013-09-12 01:18:00,70.3,67.9,29.98,SSW,193,0.0,0.0,92,0.00,,,0.00,0.00,VWS V14.01,2013-09-12 05:18:00,
2013-09-12 01:23:00,70.3,67.9,29.98,SSW,193,0.0,0.0,92,0.00,,,0.00,0.00,VWS V14.01,2013-09-12 05:23:00,
2013-09-12 01:28:00,70.3,67.9,29.98,SSW,193,0.0,0.0,92,0.00,,,0.00,0.00,VWS V14.01,2013-09-12 05:28:00,
2013-09-12 01:33:00,70.3,67.9,29.98,SSW,193,0.0,0.0,92,0.00,,,0.00,0.00,VWS V14.01,2013-09-12 05:33:00,
2013-09-12 01:38:00,70.1,67.4,29.98,SSW,193,0.0,0.0,91,0.00,,,0.00,0.00,VWS V14.01,2013-09-12 05:38:00,
2013-09-12 01:43:00,70.1,67.4,29.98,SSW,193,0.0,0.0,91,0.00,,,0.00,0.00,VWS V14.01,2013-09-12 05:43:00,
2013-09-12 01:48:00,70.1,67.4,29.97,SSW,193,0.0,1.0,91,0.00,,,0.00,0.00,VWS V14.01,2013-09-12 05:48:00,
2013-09-12 01:53:00,70.1,67.4,29.97,SSW,193,1.0,2.0,91,0.00,,,0.00,0.00,VWS V14.01,2013-09-12 05:53:00,
2013-09-12 01:58:00,70.1,67.4,29.97,SSW,193,0.0,0.0,91,0.00,,,0.00,0.00,VWS V14.01,2013-09-12 05:58:00,
2013-09-12 02:03:00,70.3,67.6,29.97,SSW,193,0.0,0.0,91,0.00,,,0.00,0.00,VWS V14.01,2013-09-12 06:03:00,
2013-09-12 02:08:00,70.3,67.2,29.97,SSW,193,0.0,0.0,90,0.00,,,0.00,0.00,VWS V14.01,2013-09-12 06:08:00,
2013-09-12 02:13:00,70.3,67.2,29.97,SSW,193,0.0,0.0,90,0.00,,,0.00,0.00,VWS V14.01,2013-09-12 06:13:00,
2013-09-12 02:18:00,70.3,67.2,29.96,SSW,193,0.0,0.0,90,0.00,,,0.00,0.00,VWS V14.01,2013-09-12 06:18:00,
2013-09-12 02:23:00,70.3,67.2,29.96,SSW,193,0.0,0.0,90,0.00,,,0.00,0.00,VWS V14.01,2013-09-12 06:23:00,
2013-09-12 02:28:00,70.1,67.0,29.96,SSW,193,0.0,0.0,90,0.00,,,0.00,0.00,VWS V14.01,2013-09-12 06:28:00,
2013-09-12 02:33:00,70.1,66.7,29.96,SSW,193,0.0,0.0,89,0.00,,,0.00,0.00,VWS V14.01,2013-09-12 06:33:00,
2013-09-12 02:38:00,69.9,66.5,29.96,SSW,193,2.0,2.0,89,0.00,,,0.00,0.00,VWS V14.01,2013-09-12 06:38:00,
2013-09-12 02:43:00,69.9,66.5,29.96,SSW,193,0.0,1.0,89,0.00,,,0.00,0.00,VWS V14.01,2013-09-12 06:43:00,
2013-09-12 02:48:00,69.9,66.5,29.96,SSW,193,0.0,0.0,89,0.00,,,0.00,0.00,VWS V14.01,2013-09-12 06:48:00,
2013-09-12 02:53:00,69.9,66.5,29.96,SSW,193,0.0,0.0,89,0.00,,,0.00,0.00,VWS V14.01,2013-09-12 06:53:00,
2013-09-12 02:58:00,69.9,66.5,29.96,SSW,193,0.0,0.0,89,0.00,,,0.00,0.00,VWS V14.01,2013-09-12 06:58:00,
2013-09-12 03:03:00,70.1,67.0,29.96,SSW,193,0.0,3.0,90,0.00,,,0.00,0.00,VWS V14.01,2013-09-12 07:03:00,
2013-09-12 03:08:00,70.3,67.2,29.96,SSW,193,0.0,0.0,90,0.00,,,0.00,0.00,VWS V14.01,2013-09-12 07:08:00,
2013-09-12 03:13:00,70.4,67.3,29.96,SSW,193,0.0,0.0,90,0.00,,,0.00,0.00,VWS V14.01,2013-09-12 07:13:00,
2013-09-12 03:18:00,70.6,67.5,29.95,SSW,193,0.0,0.0,90,0.00,,,0.00,0.00,VWS V14.01,2013-09-12 07:18:00,
2013-09-12 03:23:00,70.8,67.4,29.95,SSW,193,0.0,2.0,89,0.00,,,0.00,0.00,VWS V14.01,2013-09-12 07:23:00,
2013-09-12 03:28:00,70.9,67.5,29.95,SSW,193,0.0,0.0,89,0.00,,,0.00,0.00,VWS V14.01,2013-09-12 07:28:00,
2013-09-12 03:33:00,71.1,67.4,29.95,SSW,193,0.0,0.0,88,0.00,,,0.00,0.00,VWS V14.01,2013-09-12 07:33:00,
2013-09-12 03:38:00,71.1,67.4,29.95,SSW,193,2.0,3.0,88,0.00,,,0.00,0.00,VWS V14.01,2013-09-12 07:38:00,
2013-09-12 03:43:00,71.1,67.4,29.95,SSW,193,0.0,1.0,88,0.00,,,0.00,0.00,VWS V14.01,2013-09-12 07:43:00,
2013-09-12 03:48:00,71.1,67.0,29.95,SSW,193,0.0,0.0,87,0.00,,,0.00,0.00,VWS V14.01,2013-09-12 07:48:00,
2013-09-12 03:53:00,70.9,66.8,29.95,SSW,193,0.0,0.0,87,0.00,,,0.00,0.00,VWS V14.01,2013-09-12 07:53:00,
2013-09-12 03:58:00,70.8,66.7,29.95,SSW,193,0.0,0.0,87,0.00,,,0.00,0.00,VWS V14.01,2013-09-12 07:58:00,
2013-09-12 04:03:00,70.8,66.7,29.94,SSW,193,0.0,0.0,87,0.00,,,0.00,0.00,VWS V14.01,2013-09-12 08:03:00,
2013-09-12 04:08:00,70.6,66.9,29.94,SSW,193,0.0,0.0,88,0.00,,,0.00,0.00,VWS V14.01,2013-09-12 08:08:00,
2013-09-12 04:13:00,70.4,66.7,29.94,SSW,193,0.0,0.0,88,0.00,,,0.00,0.00,VWS V14.01,2013-09-12 08:13:00,
2013-09-12 04:18:00,70.3,66.9,29.94,SSW,193,0.0,0.0,89,0.00,,,0.00,0.00,VWS V14.01,2013-09-12 08:18:00,
2013-09-12 04:23:00,70.3,66.9,29.94,SSW,193,0.0,0.0,89,0.00,,,0.00,0.00,VWS V14.01,2013-09-12 08:23:00,
2013-09-12 04:28:00,70.1,67.0,29.94,SSW,193,0.0,0.0,90,0.00,,,0.00,0.00,VWS V14.01,2013-09-12 08:28:00,
2013-09-12 04:32:00,69.9,66.8,29.94,SSW,193,0.0,0.0,90,0.00,,,0.00,0.00,VWS V14.01,2013-09-12 08:32:00,
2013-09-12 04:37:00,69.8,66.7,29.94,SSW,193,0.0,0.0,90,0.00,,,0.00,0.00,VWS V14.01,2013-09-12 08:37:00,
2013-09-12 04:42:00,69.6,66.5,29.94,SSW,193,0.0,0.0,90,0.00,,,0.00,0.00,VWS V14.01,2013-09-12 08:42:00,
2013-09-12 04:47:00,69.6,66.9,29.93,SSW,193,0.0,0.0,91,0.00,,,0.00,0.00,VWS V14.01,2013-09-12 08:47:00,
2013-09-12 04:52:00,69.4,66.7,29.93,SSW,193,0.0,0.0,91,0.00,,,0.00,0.00,VWS V14.01,2013-09-12 08:52:00,
2013-09-12 04:57:00,69.3,66.6,29.93,SSW,193,0.0,0.0,91,0.00,,,0.00,0.00,VWS V14.01,2013-09-12 08:57:00,
2013-09-12 05:02:00,69.1,66.4,29.94,SSW,193,0.0,0.0,91,0.00,,,0.00,0.00,VWS V14.01,2013-09-12 09:02:00,
2013-09-12 05:07:00,68.9,66.2,29.94,SSW,193,0.0,0.0,91,0.00,,,0.00,0.00,VWS V14.01,2013-09-12 09:07:00,
2013-09-12 05:12:00,68.8,66.1,29.94,SSW,193,0.0,0.0,91,0.00,,,0.00,0.00,VWS V14.01,2013-09-12 09:12:00,
2013-09-12 05:17:00,68.8,66.1,29.94,SSW,193,0.0,0.0,91,0.00,,,0.00,0.00,VWS V14.01,2013-09-12 09:17:00,
2013-09-12 05:22:00,68.6,66.2,29.94,SSW,193,2.0,2.0,92,0.00,,,0.00,0.00,VWS V14.01,2013-09-12 09:22:00,
2013-09-12 05:27:00,68.6,66.2,29.94,SSW,193,0.0,0.0,92,0.00,,,0.00,0.00,VWS V14.01,2013-09-12 09:27:00,
2013-09-12 05:32:00,68.8,66.4,29.94,SSW,193,0.0,0.0,92,0.00,,,0.00,0.00,VWS V14.01,2013-09-12 09:32:00,
2013-09-12 05:37:00,68.8,66.4,29.94,SSW,193,0.0,0.0,92,0.00,,,0.00,0.00,VWS V14.01,2013-09-12 09:37:00,
2013-09-12 05:42:00,68.8,66.4,29.94,SSW,193,0.0,0.0,92,0.00,,,0.00,0.00,VWS V14.01,2013-09-12 09:42:00,
2013-09-12 05:47:00,68.9,66.8,29.94,SSW,193,0.0,0.0,93,0.00,,,0.00,0.00,VWS V14.01,2013-09-12 09:47:00,
2013-09-12 05:52:00,69.3,67.2,29.94,SSW,193,0.0,0.0,93,0.00,,,0.00,0.00,VWS V14.01,2013-09-12 09:52:00,
2013-09-12 05:57:00,69.3,67.2,29.94,SSW,193,0.0,0.0,93,0.00,,,0.00,0.00,VWS V14.01,2013-09-12 09:57:00,
2013-09-12 06:02:00,69.3,67.2,29.94,SSW,193,0.0,0.0,93,0.00,,,0.00,0.00,VWS V14.01,2013-09-12 10:02:00,
2013-09-12 06:07:00,69.3,67.2,29.94,SSW,193,0.0,0.0,93,0.00,,,0.00,0.00,VWS V14.01,2013-09-12 10:07:00,
2013-09-12 06:12:00,69.1,67.0,29.94,SSW,193,0.0,0.0,93,0.00,,,0.00,0.00,VWS V14.01,2013-09-12 10:12:00,
2013-09-12 06:17:00,69.1,67.0,29.94,SSW,193,0.0,0.0,93,0.00,,,0.00,0.00,VWS V14.01,2013-09-12 10:17:00,
2013-09-12 06:22:00,69.1,67.0,29.94,SSW,193,0.0,0.0,93,0.00,,,0.00,0.00,VWS V14.01,2013-09-12 10:22:00,
2013-09-12 06:27:00,69.3,67.2,29.94,SSW,193,0.0,0.0,93,0.00,,,0.00,0.00,VWS V14.01,2013-09-12 10:27:00,
2013-09-12 06:32:00,69.3,67.2,29.94,SSW,193,0.0,0.0,93,0.00,,,0.00,0.00,VWS V14.01,2013-09-12 10:32:00,
2013-09-12 06:37:00,69.3,67.2,29.94,SSW,193,0.0,0.0,93,0.00,,,0.00,0.00,VWS V14.01,2013-09-12 10:37:00,
2013-09-12 06:42:00,69.3,67.2,29.94,SSW,193,0.0,0.0,93,0.00,,,0.00,0.00,VWS V14.01,2013-09-12 10:42:00,
2013-09-12 06:47:00,69.3,67.2,29.94,SSW,193,0.0,0.0,93,0.00,,,0.00,0.00,VWS V14.01,2013-09-12 10:47:00,
2013-09-12 06:52:00,69.3,67.2,29.94,SSW,193,0.0,0.0,93,0.00,,,0.00,0.00,VWS V14.01,2013-09-12 10:52:00,
2013-09-12 06:57:00,69.4,67.3,29.94,SSW,193,0.0,0.0,93,0.00,,,0.00,5.00,VWS V14.01,2013-09-12 10:57:00,
2013-09-12 07:02:00,69.6,67.8,29.94,SSW,193,0.0,0.0,94,0.00,,,0.00,7.00,VWS V14.01,2013-09-12 11:02:00,
2013-09-12 07:07:00,69.6,67.8,29.94,SSW,193,0.0,0.0,94,0.00,,,0.00,11.00,VWS V14.01,2013-09-12 11:07:00,
2013-09-12 07:12:00,69.8,67.7,29.94,SSW,193,0.0,0.0,93,0.00,,,0.00,16.00,VWS V14.01,2013-09-12 11:12:00,
2013-09-12 07:17:00,69.8,67.7,29.94,SSW,193,0.0,0.0,93,0.00,,,0.00,18.00,VWS V14.01,2013-09-12 11:17:00,
2013-09-12 07:22:00,69.8,67.7,29.94,SSW,193,0.0,0.0,93,0.00,,,0.00,21.00,VWS V14.01,2013-09-12 11:22:00,
2013-09-12 07:27:00,69.8,67.7,29.94,SSW,193,0.0,0.0,93,0.00,,,0.00,28.00,VWS V14.01,2013-09-12 11:27:00,
2013-09-12 07:32:00,69.9,67.8,29.94,SSW,193,0.0,0.0,93,0.00,,,0.00,35.00,VWS V14.01,2013-09-12 11:32:00,
2013-09-12 07:37:00,69.9,67.8,29.94,SSW,193,0.0,0.0,93,0.00,,,0.00,44.00,VWS V14.01,2013-09-12 11:37:00,
2013-09-12 07:42:00,70.1,68.0,29.94,SSW,193,0.0,0.0,93,0.00,,,0.00,47.00,VWS V14.01,2013-09-12 11:42:00,
2013-09-12 07:47:00,70.4,68.3,29.93,SSW,193,0.0,0.0,93,0.00,,,0.00,49.00,VWS V14.01,2013-09-12 11:47:00,
2013-09-12 07:52:00,70.4,68.3,29.93,SSW,193,0.0,0.0,93,0.00,,,0.00,54.00,VWS V14.01,2013-09-12 11:52:00,
2013-09-12 07:57:00,70.8,68.7,29.93,SSW,193,0.0,0.0,93,0.00,,,0.00,60.00,VWS V14.01,2013-09-12 11:57:00,
2013-09-12 08:02:00,70.9,68.8,29.93,SSW,193,0.0,0.0,93,0.00,,,0.00,65.00,VWS V14.01,2013-09-12 12:02:00,
2013-09-12 08:07:00,71.1,69.0,29.93,SSW,193,0.0,0.0,93,0.00,,,0.00,69.00,VWS V14.01,2013-09-12 12:07:00,
2013-09-12 08:12:00,71.3,69.2,29.93,SSW,193,0.0,0.0,93,0.00,,,0.00,70.00,VWS V14.01,2013-09-12 12:12:00,
2013-09-12 08:17:00,71.6,69.5,29.92,SSW,193,0.0,0.0,93,0.00,,,0.00,72.00,VWS V14.01,2013-09-12 12:17:00,
2013-09-12 08:22:00,71.8,69.3,29.92,SSW,193,0.0,0.0,92,0.00,,,0.00,72.00,VWS V14.01,2013-09-12 12:22:00,
2013-09-12 08:27:00,72.0,68.9,29.92,SSW,193,0.0,0.0,90,0.00,,,0.00,74.00,VWS V14.01,2013-09-12 12:27:00,
2013-09-12 08:32:00,72.3,68.6,29.92,SSW,193,0.0,0.0,88,0.00,,,0.00,74.00,VWS V14.01,2013-09-12 12:32:00,
2013-09-12 08:37:00,72.8,68.4,29.92,SSW,193,5.0,5.0,86,0.00,,,0.00,74.00,VWS V14.01,2013-09-12 12:37:00,
2013-09-12 08:42:00,73.3,68.2,29.92,SSW,193,0.0,0.0,84,0.00,,,0.00,74.00,VWS V14.01,2013-09-12 12:42:00,
2013-09-12 08:47:00,73.9,68.1,29.92,SSW,193,0.0,0.0,82,0.00,,,0.00,74.00,VWS V14.01,2013-09-12 12:47:00,
2013-09-12 08:52:00,74.2,67.3,29.92,WSW,257,3.0,3.0,79,0.00,,,0.00,76.00,VWS V14.01,2013-09-12 12:52:00,
2013-09-12 08:57:00,74.7,67.0,29.92,West,276,0.0,0.0,77,0.00,,,0.00,77.00,VWS V14.01,2013-09-12 12:57:00,
2013-09-12 09:02:00,75.3,67.2,29.92,WSW,252,3.0,3.0,76,0.00,,,0.00,81.00,VWS V14.01,2013-09-12 13:02:00,
2013-09-12 09:07:00,75.6,66.7,29.92,WSW,237,0.0,0.0,74,0.00,,,0.00,86.00,VWS V14.01,2013-09-12 13:07:00,
2013-09-12 09:12:00,76.1,66.4,29.92,NW,311,2.0,5.0,72,0.00,,,0.00,90.00,VWS V14.01,2013-09-12 13:12:00,
2013-09-12 09:17:00,76.7,67.0,29.92,NW,311,0.0,0.0,72,0.00,,,0.00,91.00,VWS V14.01,2013-09-12 13:17:00,
2013-09-12 09:22:00,77.2,67.1,29.92,South,184,0.0,0.0,71,0.00,,,0.00,144.00,VWS V14.01,2013-09-12 13:22:00,
2013-09-12 09:27:00,77.6,66.6,29.92,WSW,240,4.0,4.0,69,0.00,,,0.00,369.00,VWS V14.01,2013-09-12 13:27:00,
2013-09-12 09:32:00,78.1,66.7,29.92,West,278,5.0,5.0,68,0.00,,,0.00,411.00,VWS V14.01,2013-09-12 13:32:00,
2013-09-12 09:37:00,78.5,66.6,29.92,West,274,4.0,5.0,67,0.00,,,0.00,320.00,VWS V14.01,2013-09-12 13:37:00,
2013-09-12 09:42:00,79.0,66.7,29.92,WNW,282,3.0,7.0,66,0.00,,,0.00,436.00,VWS V14.01,2013-09-12 13:42:00,
2013-09-12 09:47:00,79.4,66.2,29.91,West,259,0.0,5.0,64,0.00,,,0.00,450.00,VWS V14.01,2013-09-12 13:47:00,
2013-09-12 09:52:00,79.9,66.7,29.91,SW,229,0.0,2.0,64,0.00,,,0.00,468.00,VWS V14.01,2013-09-12 13:52:00,
2013-09-12 09:57:00,80.5,66.8,29.91,WSW,257,0.0,0.0,63,0.00,,,0.00,483.00,VWS V14.01,2013-09-12 13:57:00,
2013-09-12 10:02:00,81.1,67.3,29.91,West,274,4.0,5.0,63,0.00,,,0.00,497.00,VWS V14.01,2013-09-12 14:02:00,
2013-09-12 10:07:00,81.6,67.3,29.91,WNW,296,5.0,5.0,62,0.00,,,0.00,504.00,VWS V14.01,2013-09-12 14:07:00,
2013-09-12 10:12:00,81.8,67.1,29.91,West,272,5.0,6.0,61,0.00,,,0.00,520.00,VWS V14.01,2013-09-12 14:12:00,
2013-09-12 10:17:00,82.2,66.9,29.91,West,266,6.0,6.0,60,0.00,,,0.00,529.00,VWS V14.01,2013-09-12 14:17:00,
2013-09-12 10:22:00,82.4,67.1,29.91,WNW,291,0.0,0.0,60,0.00,,,0.00,543.00,VWS V14.01,2013-09-12 14:22:00,
2013-09-12 10:27:00,82.6,67.3,29.91,WSW,253,1.0,2.0,60,0.00,,,0.00,555.00,VWS V14.01,2013-09-12 14:27:00,
2013-09-12 10:32:00,83.2,67.9,29.91,WSW,240,0.0,0.0,60,0.00,,,0.00,571.00,VWS V14.01,2013-09-12 14:32:00,
2013-09-12 10:37:00,83.6,67.8,29.91,West,271,5.0,7.0,59,0.00,,,0.00,587.00,VWS V14.01,2013-09-12 14:37:00,
2013-09-12 10:42:00,83.8,68.0,29.91,WSW,249,0.0,0.0,59,0.00,,,0.00,608.00,VWS V14.01,2013-09-12 14:42:00,
2013-09-12 10:47:00,83.8,68.4,29.90,WSW,248,6.0,6.0,60,0.00,,,0.00,615.00,VWS V14.01,2013-09-12 14:47:00,
2013-09-12 10:52:00,84.0,68.1,29.90,West,264,7.0,7.0,59,0.00,,,0.00,633.00,VWS V14.01,2013-09-12 14:52:00,
2013-09-12 10:57:00,84.0,68.1,29.90,West,259,0.0,0.0,59,0.00,,,0.00,645.00,VWS V14.01,2013-09-12 14:57:00,
2013-09-12 11:02:00,84.3,68.9,29.89,WSW,250,4.0,5.0,60,0.00,,,0.00,649.00,VWS V14.01,2013-09-12 15:02:00,
2013-09-12 11:07:00,84.5,68.6,29.89,West,271,0.0,0.0,59,0.00,,,0.00,664.00,VWS V14.01,2013-09-12 15:07:00,
2013-09-12 11:12:00,84.9,68.5,29.89,WNW,295,3.0,4.0,58,0.00,,,0.00,679.00,VWS V14.01,2013-09-12 15:12:00,
2013-09-12 11:17:00,85.1,68.7,29.89,West,281,0.0,2.0,58,0.00,,,0.00,684.00,VWS V14.01,2013-09-12 15:17:00,
2013-09-12 11:22:00,85.3,68.3,29.89,SW,234,5.0,5.0,57,0.00,,,0.00,700.00,VWS V14.01,2013-09-12 15:22:00,
2013-09-12 11:27:00,85.7,69.7,29.89,WNW,296,4.0,4.0,59,0.00,,,0.00,707.00,VWS V14.01,2013-09-12 15:27:00,
2013-09-12 11:32:00,86.1,68.6,29.88,West,263,0.0,1.0,56,0.00,,,0.00,717.00,VWS V14.01,2013-09-12 15:32:00,
2013-09-12 11:37:00,86.3,68.2,29.88,West,261,0.0,1.0,55,0.00,,,0.00,717.00,VWS V14.01,2013-09-12 15:37:00,
2013-09-12 11:42:00,86.5,69.0,29.88,SW,223,0.0,0.0,56,0.00,,,0.00,701.00,VWS V14.01,2013-09-12 15:42:00,
2013-09-12 11:47:00,87.2,69.1,29.88,West,276,0.0,6.0,55,0.00,,,0.00,726.00,VWS V14.01,2013-09-12 15:47:00,
2013-09-12 11:52:00,87.4,69.3,29.88,SW,219,4.0,4.0,55,0.00,,,0.00,791.00,VWS V14.01,2013-09-12 15:52:00,
2013-09-12 11:57:00,87.4,68.7,29.88,WSW,250,5.0,5.0,54,0.00,,,0.00,744.00,VWS V14.01,2013-09-12 15:57:00,
2013-09-12 12:02:00,87.4,69.3,29.87,SSW,212,0.0,3.0,55,0.00,,,0.00,745.00,VWS V14.01,2013-09-12 16:02:00,
2013-09-12 12:07:00,88.0,69.3,29.87,NW,316,0.0,3.0,54,0.00,,,0.00,745.00,VWS V14.01,2013-09-12 16:07:00,
2013-09-12 12:12:00,88.4,69.1,29.87,West,276,0.0,6.0,53,0.00,,,0.00,807.00,VWS V14.01,2013-09-12 16:12:00,
2013-09-12 12:17:00,88.8,69.5,29.87,West,269,5.0,5.0,53,0.00,,,0.00,793.00,VWS V14.01,2013-09-12 16:17:00,
2013-09-12 12:22:00,88.8,68.9,29.87,WSW,247,2.0,2.0,52,0.00,,,0.00,788.00,VWS V14.01,2013-09-12 16:22:00,
2013-09-12 12:27:00,88.6,69.3,29.87,West,266,5.0,7.0,53,0.00,,,0.00,800.00,VWS V14.01,2013-09-12 16:27:00,
2013-09-12 12:32:00,88.6,69.3,29.87,West,277,7.0,7.0,53,0.00,,,0.00,770.00,VWS V14.01,2013-09-12 16:32:00,
2013-09-12 12:37:00,88.8,70.0,29.87,South,181,6.0,8.0,54,0.00,,,0.00,800.00,VWS V14.01,2013-09-12 16:37:00,
2013-09-12 12:42:00,89.0,69.1,29.87,West,266,0.0,0.0,52,0.00,,,0.00,803.00,VWS V14.01,2013-09-12 16:42:00,
2013-09-12 12:47:00,89.5,69.6,29.86,SW,223,4.0,4.0,52,0.00,,,0.00,821.00,VWS V14.01,2013-09-12 16:47:00,
2013-09-12 12:52:00,89.7,69.2,29.86,SSW,200,5.0,5.0,51,0.00,,,0.00,803.00,VWS V14.01,2013-09-12 16:52:00,
2013-09-12 12:57:00,89.5,69.6,29.86,WNW,290,7.0,7.0,52,0.00,,,0.00,823.00,VWS V14.01,2013-09-12 16:57:00,
2013-09-12 13:02:00,89.7,69.8,29.85,WNW,302,0.0,0.0,52,0.00,,,0.00,803.00,VWS V14.01,2013-09-12 17:02:00,
2013-09-12 13:07:00,90.3,69.2,29.85,West,263,0.0,0.0,50,0.00,,,0.00,816.00,VWS V14.01,2013-09-12 17:07:00,
2013-09-12 13:12:00,90.5,68.8,29.85,SSW,206,7.0,7.0,49,0.00,,,0.00,817.00,VWS V14.01,2013-09-12 17:12:00,
2013-09-12 13:17:00,90.5,69.3,29.84,WSW,250,2.0,2.0,50,0.00,,,0.00,870.00,VWS V14.01,2013-09-12 17:17:00,
2013-09-12 13:22:00,91.0,68.6,29.84,NW,326,0.0,2.0,48,0.00,,,0.00,870.00,VWS V14.01,2013-09-12 17:22:00,
2013-09-12 13:27:00,91.2,68.8,29.84,SSW,209,2.0,2.0,48,0.00,,,0.00,828.00,VWS V14.01,2013-09-12 17:27:00,
2013-09-12 13:32:00,91.0,69.2,29.84,West,269,1.0,2.0,49,0.00,,,0.00,849.00,VWS V14.01,2013-09-12 17:32:00,
2013-09-12 13:37:00,91.0,69.2,29.84,SW,236,4.0,7.0,49,0.00,,,0.00,216.00,VWS V14.01,2013-09-12 17:37:00,
2013-09-12 13:42:00,91.0,69.2,29.84,WNW,285,0.0,1.0,49,0.00,,,0.00,837.00,VWS V14.01,2013-09-12 17:42:00,
2013-09-12 13:47:00,91.2,70.0,29.83,WSW,248,0.0,2.0,50,0.00,,,0.00,812.00,VWS V14.01,2013-09-12 17:47:00,
2013-09-12 13:52:00,91.4,68.3,29.83,WSW,251,2.0,5.0,47,0.00,,,0.00,824.00,VWS V14.01,2013-09-12 17:52:00,
2013-09-12 13:57:00,91.2,68.2,29.83,SSW,205,5.0,8.0,47,0.00,,,0.00,821.00,VWS V14.01,2013-09-12 17:57:00,
2013-09-12 14:02:00,91.2,70.0,29.83,North,354,0.0,1.0,50,0.00,,,0.00,879.00,VWS V14.01,2013-09-12 18:02:00,
2013-09-12 14:07:00,91.2,68.2,29.83,WSW,238,1.0,5.0,47,0.00,,,0.00,188.00,VWS V14.01,2013-09-12 18:07:00,
2013-09-12 14:12:00,91.4,69.0,29.83,West,260,0.0,0.0,48,0.00,,,0.00,830.00,VWS V14.01,2013-09-12 18:12:00,
2013-09-12 14:17:00,91.6,69.2,29.82,West,274,0.0,0.0,48,0.00,,,0.00,854.00,VWS V14.01,2013-09-12 18:17:00,
2013-09-12 14:22:00,91.8,69.3,29.82,West,280,6.0,10.0,48,0.00,,,0.00,870.00,VWS V14.01,2013-09-12 18:22:00,
2013-09-12 14:27:00,91.8,67.4,29.82,WSW,256,9.0,9.0,45,0.00,,,0.00,828.00,VWS V14.01,2013-09-12 18:27:00,
2013-09-12 14:32:00,91.4,68.3,29.81,SW,227,3.0,4.0,47,0.00,,,0.00,831.00,VWS V14.01,2013-09-12 18:32:00,
2013-09-12 14:37:00,91.4,69.0,29.81,West,276,5.0,6.0,48,0.00,,,0.00,828.00,VWS V14.01,2013-09-12 18:37:00,
2013-09-12 14:42:00,91.8,69.3,29.81,SW,215,3.0,5.0,48,0.00,,,0.00,816.00,VWS V14.01,2013-09-12 18:42:00,
2013-09-12 14:47:00,92.1,68.4,29.80,SW,234,3.0,5.0,46,0.00,,,0.00,861.00,VWS V14.01,2013-09-12 18:47:00,
2013-09-12 14:52:00,92.3,68.5,29.80,SSW,192,2.0,2.0,46,0.00,,,0.00,796.00,VWS V14.01,2013-09-12 18:52:00,
2013-09-12 14:57:00,92.3,68.5,29.80,SW,230,1.0,1.0,46,0.00,,,0.00,831.00,VWS V14.01,2013-09-12 18:57:00,
2013-09-12 15:02:00,92.5,69.3,29.79,SSW,198,9.0,9.0,47,0.00,,,0.00,803.00,VWS V14.01,2013-09-12 19:02:00,
2013-09-12 15:07:00,92.5,69.3,29.79,West,264,3.0,4.0,47,0.00,,,0.00,780.00,VWS V14.01,2013-09-12 19:07:00,
2013-09-12 15:12:00,92.3,68.5,29.79,WSW,250,0.0,0.0,46,0.00,,,0.00,315.00,VWS V14.01,2013-09-12 19:12:00,
2013-09-12 15:17:00,92.5,68.1,29.78,WSW,248,6.0,6.0,45,0.00,,,0.00,817.00,VWS V14.01,2013-09-12 19:17:00,
2013-09-12 15:22:00,92.3,68.5,29.78,West,264,1.0,4.0,46,0.00,,,0.00,659.00,VWS V14.01,2013-09-12 19:22:00,
2013-09-12 15:27:00,92.3,69.2,29.78,West,268,4.0,4.0,47,0.00,,,0.00,220.00,VWS V14.01,2013-09-12 19:27:00,
2013-09-12 15:32:00,91.8,68.7,29.77,WSW,250,6.0,8.0,47,0.00,,,0.00,171.00,VWS V14.01,2013-09-12 19:32:00,
2013-09-12 15:37:00,91.2,68.8,29.77,SW,235,0.0,1.0,48,0.00,,,0.00,285.00,VWS V14.01,2013-09-12 19:37:00,
2013-09-12 15:42:00,91.0,68.6,29.77,West,269,0.0,0.0,48,0.00,,,0.00,677.00,VWS V14.01,2013-09-12 19:42:00,
2013-09-12 15:47:00,91.2,68.8,29.76,WNW,290,0.0,0.0,48,0.00,,,0.00,673.00,VWS V14.01,2013-09-12 19:47:00,
2013-09-12 15:52:00,91.4,68.3,29.76,West,278,9.0,9.0,47,0.00,,,0.00,167.00,VWS V14.01,2013-09-12 19:52:00,
2013-09-12 15:57:00,91.0,69.2,29.76,WNW,291,4.0,7.0,49,0.00,,,0.00,598.00,VWS V14.01,2013-09-12 19:57:00,
2013-09-12 16:02:00,91.0,68.6,29.75,West,266,2.0,6.0,48,0.00,,,0.00,601.00,VWS V14.01,2013-09-12 20:02:00,
2013-09-12 16:07:00,91.4,69.0,29.75,West,278,1.0,1.0,48,0.00,,,0.00,540.00,VWS V14.01,2013-09-12 20:07:00,
2013-09-12 16:12:00,91.8,68.7,29.75,SSW,196,6.0,10.0,47,0.00,,,0.00,596.00,VWS V14.01,2013-09-12 20:12:00,
2013-09-12 16:17:00,92.3,69.2,29.75,West,264,0.0,0.0,47,0.00,,,0.00,575.00,VWS V14.01,2013-09-12 20:17:00,
2013-09-12 16:22:00,92.1,68.4,29.75,SSW,198,8.0,10.0,46,0.00,,,0.00,545.00,VWS V14.01,2013-09-12 20:22:00,
2013-09-12 16:27:00,92.3,69.2,29.75,WSW,250,5.0,5.0,47,0.00,,,0.00,540.00,VWS V14.01,2013-09-12 20:27:00,
2013-09-12 16:32:00,92.5,68.7,29.74,SSW,211,7.0,7.0,46,0.00,,,0.00,501.00,VWS V14.01,2013-09-12 20:32:00,
2013-09-12 16:37:00,92.7,68.9,29.74,WSW,256,0.0,0.0,46,0.00,,,0.00,492.00,VWS V14.01,2013-09-12 20:37:00,
2013-09-12 16:42:00,92.5,68.7,29.74,West,269,5.0,9.0,46,0.00,,,0.00,163.00,VWS V14.01,2013-09-12 20:42:00,
2013-09-12 16:47:00,91.6,69.2,29.74,SSW,212,0.0,0.0,48,0.00,,,0.00,144.00,VWS V14.01,2013-09-12 20:47:00,
2013-09-12 16:52:00,90.7,68.9,29.74,South,178,0.0,5.0,49,0.00,,,0.00,146.00,VWS V14.01,2013-09-12 20:52:00,
2013-09-12 16:57:00,89.9,68.8,29.74,South,188,7.0,9.0,50,0.00,,,0.00,88.00,VWS V14.01,2013-09-12 20:57:00,
2013-09-12 17:02:00,89.3,68.8,29.73,South,184,3.0,5.0,51,0.00,,,0.00,46.00,VWS V14.01,2013-09-12 21:02:00,
2013-09-12 17:07:00,88.8,68.4,29.73,South,170,5.0,6.0,51,0.00,,,0.00,46.00,VWS V14.01,2013-09-12 21:07:00,
2013-09-12 17:12:00,88.6,69.3,29.73,South,188,3.0,5.0,53,0.00,,,0.00,62.00,VWS V14.01,2013-09-12 21:12:00,
2013-09-12 17:17:00,88.2,68.9,29.72,SSW,206,4.0,4.0,53,0.00,,,0.00,84.00,VWS V14.01,2013-09-12 21:17:00,
2013-09-12 17:22:00,88.2,70.0,29.72,WSW,246,4.0,6.0,55,0.00,,,0.00,105.00,VWS V14.01,2013-09-12 21:22:00,
2013-09-12 17:27:00,88.0,69.8,29.72,WSW,243,10.0,13.0,55,0.00,,,0.00,116.00,VWS V14.01,2013-09-12 21:27:00,
2013-09-12 17:32:00,87.2,69.6,29.73,West,271,8.0,9.0,56,0.00,,,0.00,98.00,VWS V14.01,2013-09-12 21:32:00,
2013-09-12 17:37:00,86.3,69.3,29.73,South,190,5.0,6.0,57,0.00,,,0.00,90.00,VWS V14.01,2013-09-12 21:37:00,
2013-09-12 17:42:00,85.7,68.7,29.73,SW,233,0.0,0.0,57,0.00,,,0.00,74.00,VWS V14.01,2013-09-12 21:42:00,
2013-09-12 17:47:00,85.3,68.9,29.72,SW,217,0.0,3.0,58,0.00,,,0.00,62.00,VWS V14.01,2013-09-12 21:47:00,
2013-09-12 17:52:00,85.1,69.2,29.72,SSW,198,0.0,4.0,59,0.00,,,0.00,62.00,VWS V14.01,2013-09-12 21:52:00,
2013-09-12 17:57:00,84.9,69.5,29.72,SSE,161,3.0,3.0,60,0.00,,,0.00,40.00,VWS V14.01,2013-09-12 21:57:00,
2013-09-12 18:02:00,84.7,69.3,29.72,South,190,0.0,1.0,60,0.00,,,0.00,32.00,VWS V14.01,2013-09-12 22:02:00,
2013-09-12 18:07:00,84.5,70.1,29.72,South,190,0.0,1.0,62,0.00,,,0.00,28.00,VWS V14.01,2013-09-12 22:07:00,
2013-09-12 18:12:00,84.3,73.0,29.72,NNW,331,4.0,6.0,69,0.00,,,0.00,26.00,VWS V14.01,2013-09-12 22:12:00,
2013-09-12 18:17:00,83.6,71.9,29.72,NW,304,0.0,0.0,68,0.00,,,0.00,26.00,VWS V14.01,2013-09-12 22:17:00,
2013-09-12 18:22:00,83.0,73.1,29.72,NW,304,0.0,0.0,72,0.00,,,0.00,23.00,VWS V14.01,2013-09-12 22:22:00,
2013-09-12 18:27:00,82.6,72.2,29.72,West,270,4.0,4.0,71,0.01,,,0.01,14.00,VWS V14.01,2013-09-12 22:27:00,
2013-09-12 18:32:00,82.2,71.4,29.73,West,280,0.0,0.0,70,0.01,,,0.01,11.00,VWS V14.01,2013-09-12 22:32:00,
2013-09-12 18:37:00,82.0,70.8,29.73,WSW,245,0.0,4.0,69,0.01,,,0.01,9.00,VWS V14.01,2013-09-12 22:37:00,
2013-09-12 18:42:00,82.0,72.5,29.73,West,266,0.0,0.0,73,0.01,,,0.01,12.00,VWS V14.01,2013-09-12 22:42:00,
2013-09-12 18:47:00,81.8,71.9,29.73,WSW,256,0.0,1.0,72,0.01,,,0.01,12.00,VWS V14.01,2013-09-12 22:47:00,
2013-09-12 18:52:00,81.6,71.3,29.73,WSW,253,4.0,6.0,71,0.01,,,0.01,11.00,VWS V14.01,2013-09-12 22:52:00,
2013-09-12 18:57:00,81.6,70.4,29.73,WSW,239,0.0,0.0,69,0.01,,,0.01,11.00,VWS V14.01,2013-09-12 22:57:00,
2013-09-12 19:02:00,81.6,70.4,29.74,WSW,240,0.0,0.0,69,0.01,,,0.01,9.00,VWS V14.01,2013-09-12 23:02:00,
2013-09-12 19:07:00,81.6,70.9,29.74,WSW,240,0.0,0.0,70,0.01,,,0.01,7.00,VWS V14.01,2013-09-12 23:07:00,
2013-09-12 19:12:00,81.6,71.7,29.74,WSW,248,0.0,3.0,72,0.01,,,0.01,5.00,VWS V14.01,2013-09-12 23:12:00,
2013-09-12 19:17:00,81.4,71.1,29.73,SW,236,0.0,0.0,71,0.01,,,0.01,0.00,VWS V14.01,2013-09-12 23:17:00,
2013-09-12 19:22:00,81.2,70.1,29.73,WSW,249,3.0,4.0,69,0.01,,,0.01,0.00,VWS V14.01,2013-09-12 23:22:00,
2013-09-12 19:27:00,81.2,70.1,29.73,WSW,250,7.0,7.0,69,0.00,,,0.01,0.00,VWS V14.01,2013-09-12 23:27:00,
2013-09-12 19:32:00,81.2,70.1,29.74,WSW,257,4.0,6.0,69,0.00,,,0.01,0.00,VWS V14.01,2013-09-12 23:32:00,
2013-09-12 19:37:00,81.2,70.5,29.74,West,274,0.0,4.0,70,0.00,,,0.01,0.00,VWS V14.01,2013-09-12 23:37:00,
2013-09-12 19:42:00,81.1,70.4,29.74,WSW,245,0.0,1.0,70,0.00,,,0.01,0.00,VWS V14.01,2013-09-12 23:42:00,
2013-09-12 19:47:00,80.9,70.6,29.73,West,271,5.0,5.0,71,0.00,,,0.01,0.00,VWS V14.01,2013-09-12 23:47:00,
2013-09-12 19:52:00,80.7,70.4,29.73,SW,231,2.0,3.0,71,0.00,,,0.01,0.00,VWS V14.01,2013-09-12 23:52:00,
2013-09-12 19:57:00,80.7,70.4,29.73,West,269,0.0,0.0,71,0.00,,,0.01,0.00,VWS V14.01,2013-09-12 23:57:00,
2013-09-12 20:02:00,80.5,70.2,29.74,SSW,207,0.0,1.0,71,0.00,,,0.01,0.00,VWS V14.01,2013-09-13 00:02:00,
2013-09-12 20:07:00,80.3,70.5,29.74,WSW,240,0.0,0.0,72,0.00,,,0.01,0.00,VWS V14.01,2013-09-13 00:07:00,
2013-09-12 20:12:00,80.3,70.9,29.74,West,280,0.0,0.0,73,0.00,,,0.01,0.00,VWS V14.01,2013-09-13 00:12:00,
2013-09-12 20:17:00,80.1,70.7,29.75,South,185,0.0,0.0,73,0.00,,,0.01,0.00,VWS V14.01,2013-09-13 00:17:00,
2013-09-12 20:22:00,79.8,70.8,29.75,WSW,237,0.0,2.0,74,0.00,,,0.01,0.00,VWS V14.01,2013-09-13 00:22:00,
2013-09-12 20:27:00,79.8,70.4,29.75,WSW,237,0.0,0.0,73,0.00,,,0.01,0.00,VWS V14.01,2013-09-13 00:27:00,
2013-09-12 20:32:00,79.6,70.2,29.74,WSW,237,0.0,0.0,73,0.00,,,0.01,0.00,VWS V14.01,2013-09-13 00:32:00,
2013-09-12 20:37:00,79.6,69.8,29.74,SSW,200,3.0,3.0,72,0.00,,,0.01,0.00,VWS V14.01,2013-09-13 00:37:00,
2013-09-12 20:42:00,79.4,70.0,29.74,SSW,199,4.0,5.0,73,0.00,,,0.01,0.00,VWS V14.01,2013-09-13 00:42:00,
2013-09-12 20:47:00,79.0,69.6,29.74,SSW,192,3.0,10.0,73,0.00,,,0.01,0.00,VWS V14.01,2013-09-13 00:47:00,
2013-09-12 20:52:00,78.5,69.5,29.74,South,175,5.0,9.0,74,0.00,,,0.01,0.00,VWS V14.01,2013-09-13 00:52:00,
2013-09-12 20:57:00,78.3,69.3,29.74,SSW,205,5.0,6.0,74,0.00,,,0.01,0.00,VWS V14.01,2013-09-13 00:57:00,
2013-09-12 21:01:00,77.9,69.3,29.74,SW,221,4.0,5.0,75,0.00,,,0.01,0.00,VWS V14.01,2013-09-13 01:01:00,
2013-09-12 21:06:00,77.7,69.2,29.74,SSW,195,2.0,4.0,75,0.00,,,0.01,0.00,VWS V14.01,2013-09-13 01:06:00,
2013-09-12 21:11:00,77.4,69.2,29.74,South,181,3.0,3.0,76,0.00,,,0.01,0.00,VWS V14.01,2013-09-13 01:11:00,
2013-09-12 21:16:00,77.2,69.1,29.75,South,180,3.0,3.0,76,0.00,,,0.01,0.00,VWS V14.01,2013-09-13 01:16:00,
2013-09-12 21:21:00,77.0,68.9,29.75,South,180,0.0,0.0,76,0.00,,,0.01,0.00,VWS V14.01,2013-09-13 01:21:00,
2013-09-12 21:26:00,76.8,69.1,29.75,SSW,205,0.0,0.0,77,0.00,,,0.01,0.00,VWS V14.01,2013-09-13 01:26:00,
2013-09-12 21:31:00,76.7,68.9,29.75,SSW,205,0.0,0.0,77,0.00,,,0.01,0.00,VWS V14.01,2013-09-13 01:31:00,
2013-09-12 21:36:00,76.7,68.9,29.75,SSW,205,0.0,0.0,77,0.00,,,0.01,0.00,VWS V14.01,2013-09-13 01:36:00,
2013-09-12 21:41:00,76.5,69.1,29.75,SSW,205,0.0,0.0,78,0.00,,,0.01,0.00,VWS V14.01,2013-09-13 01:41:00,
2013-09-12 21:46:00,76.5,69.5,29.74,SSW,205,0.0,0.0,79,0.00,,,0.01,0.00,VWS V14.01,2013-09-13 01:46:00,
2013-09-12 21:51:00,76.3,69.7,29.74,SSW,205,0.0,0.0,80,0.00,,,0.01,0.00,VWS V14.01,2013-09-13 01:51:00,
2013-09-12 21:56:00,76.1,69.8,29.74,SSW,205,0.0,0.0,81,0.00,,,0.01,0.00,VWS V14.01,2013-09-13 01:56:00,
2013-09-12 22:01:00,76.0,69.8,29.74,SSW,205,3.0,3.0,81,0.00,,,0.01,0.00,VWS V14.01,2013-09-13 02:01:00,
2013-09-12 22:06:00,75.8,69.2,29.74,SSW,205,0.0,0.0,80,0.00,,,0.01,0.00,VWS V14.01,2013-09-13 02:06:00,
2013-09-12 22:11:00,75.6,69.0,29.74,SSW,205,0.0,0.0,80,0.00,,,0.01,0.00,VWS V14.01,2013-09-13 02:11:00,
2013-09-12 22:16:00,75.6,69.0,29.73,SSW,205,0.0,0.0,80,0.00,,,0.01,0.00,VWS V14.01,2013-09-13 02:16:00,
2013-09-12 22:21:00,75.4,69.2,29.73,SSW,205,1.0,2.0,81,0.00,,,0.01,0.00,VWS V14.01,2013-09-13 02:21:00,
2013-09-12 22:26:00,75.4,69.2,29.73,SSW,194,0.0,2.0,81,0.00,,,0.01,0.00,VWS V14.01,2013-09-13 02:26:00,
2013-09-12 22:31:00,75.4,69.2,29.72,SSW,195,0.0,2.0,81,0.00,,,0.01,0.00,VWS V14.01,2013-09-13 02:31:00,
2013-09-12 22:36:00,75.3,69.1,29.72,SSW,195,3.0,4.0,81,0.00,,,0.01,0.00,VWS V14.01,2013-09-13 02:36:00,
2013-09-12 22:41:00,75.3,69.4,29.72,SSW,195,0.0,0.0,82,0.00,,,0.01,0.00,VWS V14.01,2013-09-13 02:41:00,
2013-09-12 22:46:00,75.3,69.4,29.72,SSW,195,0.0,0.0,82,0.00,,,0.01,0.00,VWS V14.01,2013-09-13 02:46:00,
2013-09-12 22:51:00,75.1,69.2,29.72,SSW,195,0.0,0.0,82,0.00,,,0.01,0.00,VWS V14.01,2013-09-13 02:51:00,
2013-09-12 22:56:00,75.1,69.6,29.72,SSW,195,0.0,0.0,83,0.00,,,0.01,0.00,VWS V14.01,2013-09-13 02:56:00,
2013-09-12 23:01:00,74.9,69.7,29.72,SSW,195,0.0,0.0,84,0.00,,,0.01,0.00,VWS V14.01,2013-09-13 03:01:00,
2013-09-12 23:06:00,74.7,69.6,29.72,SSW,195,0.0,0.0,84,0.00,,,0.01,0.00,VWS V14.01,2013-09-13 03:06:00,
2013-09-12 23:11:00,74.6,69.8,29.72,SSW,195,0.0,0.0,85,0.00,,,0.01,0.00,VWS V14.01,2013-09-13 03:11:00,
2013-09-12 23:16:00,74.4,69.6,29.72,SSW,195,0.0,0.0,85,0.00,,,0.01,0.00,VWS V14.01,2013-09-13 03:16:00,
2013-09-12 23:21:00,74.2,69.4,29.72,SSW,195,0.0,0.0,85,0.00,,,0.01,0.00,VWS V14.01,2013-09-13 03:21:00,
2013-09-12 23:26:00,74.0,69.6,29.72,SSW,195,0.0,0.0,86,0.00,,,0.01,0.00,VWS V14.01,2013-09-13 03:26:00,
2013-09-12 23:31:00,73.9,69.4,29.72,SSW,195,0.0,0.0,86,0.00,,,0.01,0.00,VWS V14.01,2013-09-13 03:31:00,
2013-09-12 23:36:00,73.9,69.8,29.72,SSW,195,0.0,0.0,87,0.00,,,0.01,0.00,VWS V14.01,2013-09-13 03:36:00,
2013-09-12 23:41:00,73.7,69.9,29.72,SSW,195,0.0,0.0,88,0.00,,,0.01,0.00,VWS V14.01,2013-09-13 03:41:00,
2013-09-12 23:46:00,73.5,69.7,29.72,SSW,195,0.0,0.0,88,0.00,,,0.01,0.00,VWS V14.01,2013-09-13 03:46:00,
2013-09-12 23:51:00,73.5,70.1,29.72,SSW,195,0.0,0.0,89,0.00,,,0.01,0.00,VWS V14.01,2013-09-13 03:51:00,
2013-09-12 23:56:00,73.3,69.9,29.72,SSW,195,0.0,0.0,89,0.00,,,0.01,0.00,VWS V14.01,2013-09-13 03:56:00,